Hourly Data Report for October 25, 2016

All times are specified in Local Standard Time (LST). Add 1 hour to adjust for Daylight Saving Time where and when it is observed.

ST LEONARD CS
NEW BRUNSWICK

47°09'28.050" N
67°49'55.014" W
245.00 m
810I001
71019
WIY

Download Data

Hourly Data (October 2016)
Hourly Data Report for October 25, 2016
Temp Definition
°C
Dew Point Temp Definition
°C
Rel Hum Definition
%
Wind Dir Definition
10's deg

Wind Spd Definition
km/h
Visibility Definition
km
Stn Press Definition
kPa
Hmdx Definition


Wind Chill Definition


Weather Definition


TIME
00:00 0.9 -0.5 90 28 13   97.49     LegendNANA
01:00 0.4 -0.1 96 27 11   97.51     LegendNANA
02:00 0.3 -0.1 98 27 11   97.56     LegendNANA
03:00 0.3 0.0 98 27 11   97.59     LegendNANA
04:00 0.2 0.0 98 28 11   97.61     LegendNANA
05:00 0.4 0.1 98 27 14   97.66     LegendNANA
06:00 0.4 0.1 98 28 14   97.70     LegendNANA
07:00 0.5 0.3 98 28 13   97.76     LegendNANA
08:00 0.9 0.4 97 28 14   97.83     LegendNANA
09:00 1.6 0.8 94 29 17   97.87     LegendNANA
10:00 1.9 1.0 94 30 21   97.91     LegendNANA
11:00 2.6 1.6 93 31 16   97.94     LegendNANA
12:00 3.0 2.0 93 31 17   97.99     LegendNANA
13:00 2.9 1.9 93 31 22   98.04     LegendNANA
14:00 2.6 1.8 94 30 16   98.10     LegendNANA
15:00 2.5 1.8 95 32 19   98.18     LegendNANA
16:00 2.6 2.0 96 31 14   98.25     LegendNANA
17:00 2.8 2.1 96 31 14   98.34     LegendNANA
18:00 2.7 2.2 97 32 12   98.44     LegendNANA
19:00 2.6 2.0 96 34 12   98.54     LegendNANA
20:00 2.3 1.7 96 34 9   98.65     LegendNANA
21:00 2.0 1.4 96 35 10   98.74     LegendNANA
22:00 1.7 1.1 96 36 11   98.82     LegendNANA
23:00 1.2 0.7 97 36 9   98.89     LegendNANA

Notes on Data Quality.

Legend

  • E = Estimated
  • M = Missing
  • NA = Not Available
  • ‡ = Partner data that is not subject to review by the National Climate Archives
Date modified: